Tracking 35275 objects as of 8-Sep-2026
HD Live streaming from Space Station
objects crossing your sky now

STARLINK-34012

Track STARLINK-34012 now!
10-day predictions
STARLINK-34012 is classified as:


NORAD ID: 63926
Int'l Code: 2025-098A
Launch date: May 13, 2025
Source: United States (US)
Launch site: AIR FORCE WESTERN TEST RANGE (AFWTR)
Your satellite tracking list
Your tracking list is empty




NASA's NSSDC Master Catalog

Two Line Element Set (TLE):
1 63926U 25098A   26251.52457557  .00006566  00000-0  23256-3 0  9990
2 63926  70.0003 172.5018 0003145 276.3299  83.7518 15.29592337 74002
Source of the keplerian elements: AFSPC